{"data":{"norad_id":51896,"intl_designator":"2022-022AW","name":"STARLINK-3593","alt_names":[],"object_type":"PAYLOAD","status":"ACTIVE","operator":null,"country":"US","launch_date":"2022-03-03","launch_site_code":"AFETR","launch_vehicle":null,"mission":null,"orbit_class":"UNKNOWN","rcs_meters":null,"size_class":null,"mass_kg":null,"dimensions":null,"purposes":["comms"],"wikipedia_slug":null,"has_3d_model":false,"image_url":null,"decayed_at":null,"tle_current":{"epoch":"2026-09-20T02:06:49.437216Z","epoch_age_seconds":91845,"freshness":"FRESH","line1":"1 51896U 22022AW  26263.08807219  .00000562  00000+0  28401-4 0  9992","line2":"2 51896  53.1600 191.8051 0001202  84.2216 275.8923 15.33552741252842","mean_motion":15.33552741,"eccentricity":0.0001202,"inclination_deg":53.16,"raan_deg":191.8051,"arg_perigee_deg":84.2216,"mean_anomaly_deg":275.8923,"bstar":2.8401e-5,"rev_number":25284,"period_min":93.89960719975,"perigee_km":464.40006000453,"apogee_km":466.04520366002,"semimajor_km":6843.3596318323,"source":"CELESTRAK","updated_at":"2026-09-20T09:00:39.974195Z"}}}